datetime,flow
2018-07-17,67.8381945
2018-07-18,59.5885417
2018-07-19,54.7347222
2018-07-20,55.503125
2018-07-21,54.7284722
2018-07-22,102.657986
2018-07-23,488.752778
2018-07-24,212.302083
2018-07-25,181.434028
2018-07-26,243.329861
2018-07-27,211.579861
2018-07-28,251.548611
2018-07-29,164.868056
2018-07-30,117.208333
2018-07-31,100.5125
2018-08-01,124.601736
2018-08-02,116.295139
2018-08-03,109.485069
2018-08-04,103.724653
2018-08-05,100.274306
2018-08-06,303.067014
2018-08-07,202.371528
2018-08-08,95.3194444
2018-08-09,82.2368056
2018-08-10,77.2732639
2018-08-11,74.1649306
2018-08-12,73.090625
2018-08-13,71.5729167
2018-08-14,250.891319
2018-08-15,157.226736
2018-08-16,81.528125
2018-08-17,280.026042
2018-08-18,108.573264
2018-08-19,113.164583
2018-08-20,82.8243056
2018-08-21,126.623958
2018-08-22,137.531944
2018-08-23,93.9246528
2018-08-24,89.4013889
2018-08-25,86.7861111
2018-08-26,86.8006944
2018-08-27,83.7913194
2018-08-28,81.2541667
2018-08-29,84.2850694
2018-08-30,83.8177083
2018-08-31,83.2298611
2018-09-01,110.735764
2018-09-02,127.650347
2018-09-03,90.2024305
2018-09-04,89.0979167
2018-09-05,102.220486
2018-09-06,107.160069
2018-09-07,94.8260417
2018-09-08,88.9326389
2018-09-09,89.2461806
2018-09-10,83.3847222
2018-09-11,80.6572917
2018-09-12,81.5048611
2018-09-13,79.9604167
2018-09-14,78.0538194
2018-09-15,77.9590278
2018-09-16,80.2993056
2018-09-17,78.9604167
2018-09-18,79.4326389
2018-09-19,77.8774306
2018-09-20,81.109375
2018-09-21,81.9913194
2018-09-22,80.0628472
2018-09-23,77.2934028
2018-09-24,74.5027778
2018-09-25,74.8350695
2018-09-26,72.4482639
2018-09-27,70.5
2018-09-28,70.5149306
2018-09-29,70.9701389
2018-09-30,72.5395833
2018-10-01,72.1864583
2018-10-02,70.953125
2018-10-03,70.3434028
2018-10-04,70.2465278
2018-10-05,71.2006944
2018-10-06,72.74375
2018-10-07,81.3295139
2018-10-08,128.737153
2018-10-09,87.1277778
2018-10-10,97.4045139
2018-10-11,84.7996528
2018-10-12,79.9888889
2018-10-13,77.7315972
2018-10-14,77.83125
2018-10-15,78.6003472
2018-10-16,78.0795139
2018-10-17,76.9576389
2018-10-18,77.0954861
2018-10-19,75.9638889
2018-10-20,73.4982639
2018-10-21,74.9864583
2018-10-22,74.2038194
2018-10-23,74.734375
2018-10-24,92.9482639
2018-10-25,84.8496528
2018-10-26,86.0256944
2018-10-27,86.1649306
2018-10-28,84.7444445
2018-10-29,83.2482639
2018-10-30,95.696875
2018-10-31,150.638889
2018-11-01,96.6388889
2018-11-02,93.3791667
2018-11-03,93.8229167
2018-11-04,91.1184028
2018-11-05,90.9972222
2018-11-06,88.9427083
2018-11-07,88.8784722
2018-11-08,88.6545139
2018-11-09,87.3215278
2018-11-10,87.6993056
2018-11-11,101.846875
2018-11-12,101.360764
2018-11-13,93.2166667
2018-11-14,94.8847222
2018-11-15,93.2555556
2018-11-16,93.0868056
2018-11-17,93.9768116
2018-11-18,
2018-11-19,95.8836806
2018-11-20,95.9274305
2018-11-21,93.4736111
2018-11-22,91.9190972
2018-11-23,90.8927083
2018-11-24,93.1284722
2018-11-25,96.7298611
2018-11-26,93.6621528
2018-11-27,95.40625
2018-11-28,95.4704861
2018-11-29,94.0760417
2018-11-30,92.815625
2018-12-01,91.3427083
2018-12-02,90.1684028
2018-12-03,90.3069444
2018-12-04,86.8152778
2018-12-05,89.1402778
2018-12-06,89.5034722
2018-12-07,87.5326389
2018-12-08,89.8972222
2018-12-09,91.1385417
2018-12-10,87.6048611
2018-12-11,91.9486111
2018-12-12,89.446875
2018-12-13,89.990625
2018-12-14,88.4520833
2018-12-15,88.7815972
2018-12-16,89.4253472
2018-12-17,87.9381944
2018-12-18,89.0607639
2018-12-19,86.528125
2018-12-20,86.4239583
2018-12-21,
2018-12-22,
2018-12-23,
2018-12-24,
2018-12-25,
2018-12-26,
2018-12-27,
2018-12-28,
2018-12-29,
2018-12-30,
2018-12-31,
2019-01-01,
2019-01-02,
2019-01-03,
2019-01-04,
2019-01-05,
2019-01-06,
2019-01-07,
2019-01-08,
2019-01-09,
2019-01-10,
2019-01-11,
2019-01-12,98.4777778
2019-01-13,97.6215278
2019-01-14,92.8270833
2019-01-15,91.1607639
2019-01-16,91.49375
2019-01-17,90.9628472
2019-01-18,91.146875
2019-01-19,91.9760417
2019-01-20,92.3902778
2019-01-21,93.3420139
2019-01-22,89.5017361
2019-01-23,90.8555556
2019-01-24,92.4743056
2019-01-25,88.9635417
2019-01-26,89.6871528
2019-01-27,91.0697917
2019-01-28,91.2652778
2019-01-29,87.6444444
2019-01-30,89.4614583
2019-01-31,90.0027778
2019-02-01,88.3246528
2019-02-02,89.6493056
2019-02-03,90.7225694
2019-02-04,89.6309028
2019-02-05,87.796875
2019-02-06,86.3815972
2019-02-07,81.9663194
2019-02-08,82.8454861
2019-02-09,88.2125
2019-02-10,89.5756944
2019-02-11,87.0090278
2019-02-12,87.5916667
2019-02-13,88.9934028
2019-02-14,87.2600694
2019-02-15,86.4059028
2019-02-16,87.3649305
2019-02-17,86.0770833
2019-02-18,89.3399306
2019-02-19,87.9628472
2019-02-20,90.9736111
2019-02-21,92.7166667
2019-02-22,96.0541667
2019-02-23,128.759722
2019-02-24,104.437847
2019-02-25,103.906597
2019-02-26,104.414583
2019-02-27,101.659028
2019-02-28,95.6625
2019-03-01,93.3326389
2019-03-02,92.7586806
2019-03-03,90.7434028
2019-03-04,
2019-03-05,101.2625
2019-03-06,124.149369
2019-03-07,109.307986
2019-03-08,98.3083333
2019-03-09,96.8243056
2019-03-10,95.2260417
2019-03-11,94.3828472
2019-03-12,92.9625
2019-03-13,384.309028
2019-03-14,174.856597
2019-03-15,133.336458
2019-03-16,118.807986
2019-03-17,116.448264
2019-03-18,112.141319
2019-03-19,108.221181
2019-03-20,101.096181
2019-03-21,99.7986111
2019-03-22,105.755556
2019-03-23,128.833333
2019-03-24,109.971528
2019-03-25,102.6375
2019-03-26,91.66875
2019-03-27,92.6868056
2019-03-28,95.2357639
2019-03-29,110.569445
2019-03-30,117.649306
2019-03-31,109.907639
2019-04-01,105.469792
2019-04-02,101.894792
2019-04-03,99.5215278
2019-04-04,98.790625
2019-04-05,98.1232639
2019-04-06,100.220833
2019-04-07,103.602431
2019-04-08,99.4840278
2019-04-09,107.123264
2019-04-10,116.362847
2019-04-11,110.373958
2019-04-12,106.476736
2019-04-13,149.111806
2019-04-14,122.795139
2019-04-15,102.66875
2019-04-16,101.944792
2019-04-17,102.677431
2019-04-18,100.059028
2019-04-19,98.3315972
2019-04-20,98.1642361
2019-04-21,96.5899306
2019-04-22,96.7388889
2019-04-23,98.0736111
2019-04-24,93.6638889
2019-04-25,92.2829861
2019-04-26,92.6743056
2019-04-27,93.2298611
2019-04-28,92.9659722
2019-04-29,93.7378472
2019-04-30,174.687847
2019-05-01,109.539931
2019-05-02,100.780208
2019-05-03,97.3871528
2019-05-04,88.4496528
2019-05-05,91.5697917
2019-05-06,88.2822917
2019-05-07,89.5128472
2019-05-08,105.464931
2019-05-09,133.598611
2019-05-10,120.047222
2019-05-11,102.7625
2019-05-12,96.7270833
2019-05-13,90.6513889
2019-05-14,85.4107639
2019-05-15,86.3958333
2019-05-16,84.6795139
2019-05-17,81.0704861
2019-05-18,81.5527778
2019-05-19,82.871875
2019-05-20,248.904861
2019-05-21,433.836806
2019-05-22,175.944444
2019-05-23,149.006944
2019-05-24,119.565278
2019-05-25,104.87257
2019-05-26,94.603125
2019-05-27,94.8854167
2019-05-28,92.965625
2019-05-29,96.5940972
2019-05-30,94.10625
2019-05-31,96.4607639
2019-06-01,110.347917
2019-06-02,150.061806
2019-06-03,162.677083
2019-06-04,121.079861
2019-06-05,163.836806
2019-06-06,110.746528
2019-06-07,151.621875
2019-06-08,121.118056
2019-06-09,99.6684028
2019-06-10,97.3006944
2019-06-11,91.3565972
2019-06-12,86.2065972
2019-06-13,86.2996528
2019-06-14,89.6288194
2019-06-15,122.964236
2019-06-16,290.628819
2019-06-17,112.55625
2019-06-18,155.343403
2019-06-19,130.972222
2019-06-20,97.4493056
2019-06-21,89.1736111
2019-06-22,138.548958
2019-06-23,103.288194
2019-06-24,89.6177083
2019-06-25,82.7920139
2019-06-26,81.6916667
2019-06-27,79.7104167
2019-06-28,77.884375
2019-06-29,83.4131944
2019-06-30,84.7788194
2019-07-01,98.56875
2019-07-02,129.390278
2019-07-03,96.1784722
2019-07-04,78.6885417
2019-07-05,167.48125
2019-07-06,151.925
2019-07-07,230.608681
2019-07-08,120.849306
2019-07-09,83.7211806
2019-07-10,74.3447917
2019-07-11,
2019-07-12,
2019-07-13,74.1958333
2019-07-14,75.1649306
2019-07-15,97.1079861
2019-07-16,86.69375
2019-07-17,86.6163194
2019-07-18,79.2440972
2019-07-19,70.7
2019-07-20,485.840972
2019-07-21,409.041667
2019-07-22,340.201389
2019-07-23,136.545139
2019-07-24,118.729167
2019-07-25,143.50625
2019-07-26,106.768403
2019-07-27,205.367014
2019-07-28,150.868056
2019-07-29,150.312847
2019-07-30,136.909722
2019-07-31,101.654514
2019-08-01,223.250694
2019-08-02,237.650694
2019-08-03,93.9541667
2019-08-04,83.6704861
2019-08-05,73.6923611
2019-08-06,83.9975694
2019-08-07,83.4763889
2019-08-08,328.58125
2019-08-09,241.951389
2019-08-10,182.409722
2019-08-11,200.90625
2019-08-12,124.045139
2019-08-13,107.691667
2019-08-14,113.050694
2019-08-15,103.718403
2019-08-16,97.9420139
2019-08-17,98.2732639
2019-08-18,101.327778
2019-08-19,96.9069444
2019-08-20,92.2444444
2019-08-21,78.2559028
2019-08-22,70.51875
2019-08-23,66.8027778
2019-08-24,63.7107639
2019-08-25,56.6517361
2019-08-26,58.8399306
2019-08-27,60.4663194
2019-08-28,65.6628472
2019-08-29,59.7315972
2019-08-30,60.9371528
2019-08-31,60.1319444
2019-09-01,53.6711806
2019-09-02,55.6642361
2019-09-03,52.7180556
2019-09-04,58.3246528
2019-09-05,56.3819444
2019-09-06,206.935417
2019-09-07,149.509722
2019-09-08,78.3229167
2019-09-09,70.3166667
2019-09-10,57.4725694
2019-09-11,54.4618056
2019-09-12,52.6916667
2019-09-13,50.0506944
2019-09-14,49.2420139
2019-09-15,48.7347222
2019-09-16,64.4447917
2019-09-17,70.2635417
2019-09-18,69.7180555
2019-09-19,68.3482639
2019-09-20,67.2652778
2019-09-21,69.803125
2019-09-22,69.9420139
2019-09-23,69.9083333
2019-09-24,67.5961806
2019-09-25,72.1020833
2019-09-26,72.1048611
2019-09-27,67.9298611
2019-09-28,71.6013889
2019-09-29,74.4559028
2019-09-30,69.1777778
2019-10-01,70.1847222
2019-10-02,74.7659722
2019-10-03,74.2493056
2019-10-04,70.5822917
2019-10-05,72.2913194
2019-10-06,73.8180556
2019-10-07,73.8975694
2019-10-08,70.5885417
2019-10-09,74.7822917
2019-10-10,78.7944444
2019-10-11,85.521875
2019-10-12,89.3381944
2019-10-13,86.9413195
2019-10-14,87.9368056
2019-10-15,80.7642361
2019-10-16,78.8430555
2019-10-17,79.3979167
2019-10-18,81.9145833
2019-10-19,83.40625
2019-10-20,83.1402778
2019-10-21,90.6201389
2019-10-22,87.2774306
2019-10-23,106.312153
2019-10-24,127.329861
2019-10-25,103.226042
2019-10-26,100.418403
2019-10-27,97.6465278
2019-10-28,110.933333
2019-10-29,101.86632
2019-10-30,90.528125
2019-10-31,99.9076389
2019-11-01,100.526736
2019-11-02,97.3236111
2019-11-03,98.4704861
2019-11-04,96.6930556
2019-11-05,99.5263889
2019-11-06,97.9548611
2019-11-07,99.0857639
2019-11-08,101.053472
2019-11-09,98.3444444
2019-11-10,99.9454861
2019-11-11,98.003125
2019-11-12,95.5958333
2019-11-13,98.8586806
2019-11-14,97.4513889
2019-11-15,96.9680556
2019-11-16,97.1423611
2019-11-17,98.6194444
2019-11-18,98.0024306
2019-11-19,98.259375
2019-11-20,96.9649306
2019-11-21,101.292014
2019-11-22,116.264236
2019-11-23,120.173264
2019-11-24,110.279514
2019-11-25,104.463194
2019-11-26,107.260764
2019-11-27,95.0402778
2019-11-28,105.378125
2019-11-29,129.449653
2019-11-30,112.455208
2019-12-01,98.6645833
2019-12-02,105.423958
2019-12-03,107.059375
2019-12-04,102.239583
2019-12-05,100.481597
2019-12-06,99.0434028
2019-12-07,99.2892361
2019-12-08,99.0017361
2019-12-09,99.7465278
2019-12-10,98.0229167
2019-12-11,98.503125
2019-12-12,92.7052083
2019-12-13,95.9881944
2019-12-14,95.6295139
2019-12-15,96.2125
2019-12-16,91.3902778
2019-12-17,84.0638889
2019-12-18,93.0461806
2019-12-19,95.4861111
2019-12-20,94.553125
2019-12-21,96.5326389
2019-12-22,97.075
2019-12-23,102.009375
2019-12-24,102.003472
2019-12-25,96.6756944
2019-12-26,96.3868056
2019-12-27,96.6840278
2019-12-28,95.8350694
2019-12-29,87.7996528
2019-12-30,88.2746528
2019-12-31,91.8753472
2020-01-01,96.3288194
2020-01-02,99.3503472
2020-01-03,95.403125
2020-01-04,96.5423611
2020-01-05,98.5253472
2020-01-06,93.8791667
2020-01-07,97.10625
2020-01-08,96.9659722
2020-01-09,95.6069445
2020-01-10,97.5947917
2020-01-11,94.1944444
2020-01-12,95.9204861
2020-01-13,71.3315972
2020-01-14,71.9760417
2020-01-15,75.2239583
2020-01-16,71.4114583
2020-01-17,75.5784722
2020-01-18,72.76875
2020-01-19,73.0753472
2020-01-20,67.0520833
2020-01-21,67.9975694
2020-01-22,67.8
2020-01-23,65.6048611
2020-01-24,79.7465278
2020-01-25,87.8361111
2020-01-26,88.8777778
2020-01-27,88.6340278
2020-01-28,87.9253472
2020-01-29,86.7895833
2020-01-30,73.2076389
2020-01-31,66.5920139
2020-02-01,67.6739583
2020-02-02,67.5673611
2020-02-03,65.1385417
2020-02-04,60.5607639
2020-02-05,59.4670139
2020-02-06,64.8322917
2020-02-07,67.6298611
2020-02-08,81.1982639
2020-02-09,74.259375
2020-02-10,70.1618056
2020-02-11,67.9708333
2020-02-12,66.1836806
2020-02-13,65.8048611
2020-02-14,68.6315972
2020-02-15,66.0298611
2020-02-16,63.3739583
2020-02-17,63.4520833
2020-02-18,68.1541667
2020-02-19,63.1802083
2020-02-20,57.0986111
2020-02-21,59.5104167
2020-02-22,63.2020833
2020-02-23,71.5083333
2020-02-24,63.1861111
2020-02-25,54.6684028
2020-02-26,55.0961806
2020-02-27,61.6416667
2020-02-28,60.0861111
2020-02-29,60.9013889
2020-03-01,61.6517361
2020-03-02,126.29375
2020-03-03,125.065972
2020-03-04,116.209028
2020-03-05,110.863889
2020-03-06,109.335417
2020-03-07,111.788889
2020-03-08,113.073264
2020-03-09,123.493056
2020-03-10,113.990625
2020-03-11,112.730903
2020-03-12,111.047222
2020-03-13,123.040625
2020-03-14,117.626736
2020-03-15,119.279167
2020-03-16,111.876736
2020-03-17,116.507639
2020-03-18,110.920833
2020-03-19,209.716319
2020-03-20,121.493056
2020-03-21,113.310764
2020-03-22,118.888889
2020-03-23,114.875694
2020-03-24,110.524306
2020-03-25,106.297917
2020-03-26,105.107292
2020-03-27,107.797569
2020-03-28,107.258333
2020-03-29,107.196528
2020-03-30,106.023264
2020-03-31,105.753819
2020-04-01,105.655556
2020-04-02,106.364583
2020-04-03,134.190278
2020-04-04,118.876042
2020-04-05,113.339236
2020-04-06,94.4159722
2020-04-07,87.3923611
2020-04-08,88.0263889
2020-04-09,88.6847222
2020-04-10,88.6270833
2020-04-11,88.9861111
2020-04-12,88.0625
2020-04-13,102.893403
2020-04-14,98.9041667
2020-04-15,90.4423611
2020-04-16,85.8694444
2020-04-17,86.903125
2020-04-18,86.4524306
2020-04-19,84.7003472
2020-04-20,70.3086806
2020-04-21,70.2590278
2020-04-22,71.4475694
2020-04-23,69.5517361
2020-04-24,69.859375
2020-04-25,69.1458333
2020-04-26,68.8166667
2020-04-27,68.5451389
2020-04-28,69.1725694
2020-04-29,66.7152778
2020-04-30,67.5732639
2020-05-01,64.1784722
2020-05-02,63.8895833
2020-05-03,64.2090278
2020-05-04,66.1947917
2020-05-05,65.7861111
2020-05-06,63.2902778
2020-05-07,62.8315972
2020-05-08,63.1493056
2020-05-09,62.6777778
2020-05-10,63.2291667
2020-05-11,62.3041667
2020-05-12,64.8625
2020-05-13,63.65
2020-05-14,62.740625
2020-05-15,86.6215278
2020-05-16,75.2152778
2020-05-17,67.0274306
2020-05-18,60.1590278
2020-05-19,60.03125
2020-05-20,58.4618056
2020-05-21,71.4493056
2020-05-22,76.3010417
2020-05-23,74.9572917
2020-05-24,206.145139
2020-05-25,140.552778
2020-05-26,89.8430556
2020-05-27,83.5059028
2020-05-28,91.9010417
2020-05-29,76.8163194
2020-05-30,131.780556
2020-05-31,120.080903
2020-06-01,117.690972
2020-06-02,103.138889
2020-06-03,100.891319
2020-06-04,95.4097222
2020-06-05,90.840625
2020-06-06,100.046528
2020-06-07,97.2840278
2020-06-08,88.3225694
2020-06-09,126.646528
2020-06-10,99.3579861
2020-06-11,85.31875
2020-06-12,80.2440972
2020-06-13,86.4972222
2020-06-14,90.9826389
2020-06-15,84.2947917
2020-06-16,83.7184028
2020-06-17,78.9114583
2020-06-18,82.9309028
2020-06-19,150.145486
2020-06-20,96.9586806
2020-06-21,84.7847222
2020-06-22,83.8586806
2020-06-23,84.9638889
2020-06-24,91.2961806
2020-06-25,83.6715278
2020-06-26,205.440972
2020-06-27,191.527778
2020-06-28,102.801736
2020-06-29,92.8618056
2020-06-30,85.4510417
2020-07-01,79.3614583
2020-07-02,83.2170139
2020-07-03,88.1774306
2020-07-04,237.198611
2020-07-05,126.28125
2020-07-06,103.652083
2020-07-07,81.3222222
2020-07-08,77.5732639
2020-07-09,72.0045139
2020-07-10,68.2902778
2020-07-11,66.8138889
2020-07-12,74.2111111
2020-07-13,66.1003472
2020-07-14,165.539583
2020-07-15,253.636111
2020-07-16,90.53125
2020-07-17,59.8746528
2020-07-18,58.28125
2020-07-19,56.3878472
2020-07-20,54.3604167
2020-07-21,84.6944444
2020-07-22,67.7149306
2020-07-23,60.4829861
2020-07-24,66.8631944
2020-07-25,69.7440972
2020-07-26,72.2399306
2020-07-27,75.9673611
2020-07-28,76.0756945
2020-07-29,69.5364583
2020-07-30,64.5416667
2020-07-31,61.7052083
2020-08-01,61.7791667
2020-08-02,85.7944444
2020-08-03,69.6152778
2020-08-04,71.2847222
2020-08-05,207.401736
2020-08-06,84.746875
2020-08-07,58.7357639
2020-08-08,53.4190972
2020-08-09,59.8142361
2020-08-10,63.5423611
2020-08-11,61.1298611
2020-08-12,62.9767361
2020-08-13,61.0083333
2020-08-14,58.2805556
2020-08-15,59.7836806
2020-08-16,73.58125
2020-08-17,64.5309028
2020-08-18,59.6743056
2020-08-19,72.9243055
2020-08-20,134.319444
2020-08-21,86.4298611
2020-08-22,67.5697917
2020-08-23,62.9739583
2020-08-24,63.2895833
2020-08-25,62.9260417
2020-08-26,70.9590278
2020-08-27,67.2899306
2020-08-28,59.621875
2020-08-29,145.669792
2020-08-30,84.475
2020-08-31,65.5743055
2020-09-01,68.4465278
2020-09-02,61.3083333
2020-09-03,60.7690972
2020-09-04,58.9315972
2020-09-05,58.4760417
2020-09-06,55.6399306
2020-09-07,57.7427083
2020-09-08,66.8815972
2020-09-09,90.5725694
2020-09-10,85.6819444
2020-09-11,79.3947917
2020-09-12,74.4197917
2020-09-13,70.46875
2020-09-14,68.41875
2020-09-15,67.8215278
2020-09-16,66.3479167
2020-09-17,66.0361111
2020-09-18,67.4361111
2020-09-19,66.0159722
2020-09-20,68.5229167
2020-09-21,66.3256944
2020-09-22,67.1045139
2020-09-23,67.61875
2020-09-24,67.3277778
2020-09-25,66.1729167
2020-09-26,66.7875
2020-09-27,66.6315972
2020-09-28,68.0746528
2020-09-29,69.9802083
2020-09-30,68.6982639
2020-10-01,68.1086806
2020-10-02,68.334375
2020-10-03,67.9857639
2020-10-04,72.45
2020-10-05,67.9909722
2020-10-06,68.9326389
2020-10-07,66.8378472
2020-10-08,69.41875
2020-10-09,66.846875
2020-10-10,69.4298611
2020-10-11,71.6159722
2020-10-12,74.8739583
2020-10-13,73.5
2020-10-14,75.334375
2020-10-15,77.1184028
2020-10-16,76.9434028
2020-10-17,78.5288194
2020-10-18,79.8121528
2020-10-19,79.2270833
2020-10-20,77.9201389
2020-10-21,78.2972222
2020-10-22,74.0791667
2020-10-23,79.6836806
2020-10-24,80.21875
2020-10-25,80.6326389
2020-10-26,78.3232639
2020-10-27,90.2770833
2020-10-28,89.2666667
2020-10-29,84.1552083
2020-10-30,83.9291667
2020-10-31,79.4164583
2020-11-01,80.0222222
2020-11-02,80.7232639
2020-11-03,80.8163195
2020-11-04,80.6201389
2020-11-05,80.3486111
2020-11-06,81.8645833
2020-11-07,82.1875
2020-11-08,84.3364583
2020-11-09,84.7163194
2020-11-10,84.7527778
2020-11-11,84.6555556
2020-11-12,85.1315972
2020-11-13,83.353125
2020-11-14,85.3930556
2020-11-15,85.6986111
2020-11-16,86.8006944
2020-11-17,83.6989583
2020-11-18,79.0871528
2020-11-19,80.0430556
2020-11-20,80.5677083
2020-11-21,81.7329861
2020-11-22,81.2277778
2020-11-23,81.2118056
2020-11-24,82.9315972
2020-11-25,81.7677083
2020-11-26,81.2364583
2020-11-27,80.7899306
2020-11-28,78.459375
2020-11-29,81.1506944
2020-11-30,78.2625
2020-12-01,82.0871528
2020-12-02,79.3940972
2020-12-03,80.8493056
2020-12-04,82.0638889
2020-12-05,83.0524306
2020-12-06,81.8472222
2020-12-07,73.1163194
2020-12-08,69.4482639
2020-12-09,68.5732639
2020-12-10,67.0385417
2020-12-11,68.7993056
2020-12-12,66.2333333
2020-12-13,65.4340278
2020-12-14,65.26875
2020-12-15,69.0822917
2020-12-16,66.4569445
2020-12-17,66.715625
2020-12-18,68.0350694
2020-12-19,66.9576389
2020-12-20,67.9479167
2020-12-21,68.7128472
2020-12-22,68.1149306
2020-12-23,63.5989583
2020-12-24,62.2614583
2020-12-25,62.3138889
2020-12-26,65.0260417
2020-12-27,65.553125
2020-12-28,62.0847222
2020-12-29,67.3711806
2020-12-30,57.8791667
2020-12-31,61.76875
2021-01-01,65.7239583
2021-01-02,62.6878472
2021-01-03,64.4628472
2021-01-04,61.8322917
2021-01-05,54.7027778
2021-01-06,55.45625
2021-01-07,55.0423611
2021-01-08,54.6788195
2021-01-09,54.2423611
2021-01-10,56.9524306
2021-01-11,52.8777778
2021-01-12,53.5645833
2021-01-13,59.659375
2021-01-14,55.6972222
2021-01-15,49.4951389
2021-01-16,54.2604167
2021-01-17,54.2829861
2021-01-18,54.1982639
2021-01-19,51.3475694
2021-01-20,52.9135417
2021-01-21,54.2756944
2021-01-22,47.6159722
2021-01-23,44.9954861
2021-01-24,44.8534722
2021-01-25,46.6451389
2021-01-26,45.184375
2021-01-27,45.5604167
2021-01-28,54.9663194
2021-01-29,52.0434028
2021-01-30,48.484375
2021-01-31,47.2090278
2021-02-01,46.5256944
2021-02-02,46.2611111
2021-02-03,45.5111111
2021-02-04,47.2246528
2021-02-05,47.5347222
2021-02-06,55.8517361
2021-02-07,55.0368056
2021-02-08,47.6645833
2021-02-09,47.8246528
2021-02-10,52.1673611
2021-02-11,54.6513889
2021-02-12,49.1965278
2021-02-13,49.3854167
2021-02-14,49.2413194
2021-02-15,54.7340278
2021-02-16,57.9618056
2021-02-17,55.4489583
2021-02-18,54.5555556
2021-02-19,63.0782609
2021-02-20,67.6517361
2021-02-21,62.3871528
2021-02-22,62.3534722
2021-02-23,58.9305556
2021-02-24,57.2270833
2021-02-25,62.2670139
2021-02-26,63.6875
2021-02-27,58.3291667
2021-02-28,54.7277778
2021-03-01,53.4041667
2021-03-02,54.2565972
2021-03-03,53.8152778
2021-03-04,62.0875
2021-03-05,66.3350694
2021-03-06,62.5159722
2021-03-07,58.5454861
2021-03-08,56.9208333
2021-03-09,55.8256944
2021-03-10,53.9965278
2021-03-11,54.2041667
2021-03-12,67.1524306
2021-03-13,116.991667
2021-03-14,107.089236
2021-03-15,113.6875
2021-03-16,94.5239583
2021-03-17,84.5652778
2021-03-18,80.7732639
2021-03-19,85.2916667
2021-03-20,115.916667
2021-03-21,138.268056
2021-03-22,210.274306
2021-03-23,136.222222
2021-03-24,119.888889
2021-03-25,112.653819
2021-03-26,109.229167
2021-03-27,106.205556
2021-03-28,105.707639
2021-03-29,106.701042
2021-03-30,107.511806
2021-03-31,105.565972
2021-04-01,105.155556
2021-04-02,103.918403
2021-04-03,104.961806
2021-04-04,105.680556
2021-04-05,98.9194444
2021-04-06,87.3270833
2021-04-07,84.3944444
2021-04-08,80.3996528
2021-04-09,79.2739583
2021-04-10,81.4711806
2021-04-11,79.6829861
2021-04-12,56.2760417
2021-04-13,57.2472222
2021-04-14,60.1298611
2021-04-15,81.9430556
2021-04-16,100.614931
2021-04-17,77.0322917
2021-04-18,73.3833333
2021-04-19,69.2732639
2021-04-20,76.5986111
2021-04-21,70.9378472
2021-04-22,70.8180555
2021-04-23,71.0350694
2021-04-24,74.3420139
2021-04-25,70.5371528
2021-04-26,70.109375
2021-04-27,68.9996528
2021-04-28,72.4670139
2021-04-29,68.8295139
2021-04-30,66.8427083
2021-05-01,67.0493056
2021-05-02,75.7760417
2021-05-03,286.940972
2021-05-04,102.83125
2021-05-05,82.2496528
2021-05-06,79.1090278
2021-05-07,77.0145833
2021-05-08,75.4940972
2021-05-09,77.2930556
2021-05-10,120.461111
2021-05-11,166.982639
2021-05-12,97.9378472
2021-05-13,78.2020833
2021-05-14,73.3986111
2021-05-15,69.2611111
2021-05-16,68.9354167
2021-05-17,220.310764
2021-05-18,411.180556
2021-05-19,245.295139
2021-05-20,201.010417
2021-05-21,181.8125
2021-05-22,256.277778
2021-05-23,201.517361
2021-05-24,168.857639
2021-05-25,159.347222
2021-05-26,151.704861
2021-05-27,147.638889
2021-05-28,143.288194
2021-05-29,210.364583
2021-05-30,373.885417
2021-05-31,363.055556
2021-06-01,230.09375
2021-06-02,188.034722
2021-06-03,169.90625
2021-06-04,158.25
2021-06-05,150.625
2021-06-06,202.569444
2021-06-07,181.777778
2021-06-08,151.923611
2021-06-09,140.916667
2021-06-10,133.90625
2021-06-11,129.020833
2021-06-12,127.253472
2021-06-13,124.819097
2021-06-14,90.125
2021-06-15,87.9520833
2021-06-16,85.6857639
2021-06-17,86.3034722
2021-06-18,84.3857639
2021-06-19,104.097569
2021-06-20,96.175
2021-06-21,99.4569444
2021-06-22,88.1270833
2021-06-23,81.4086806
2021-06-24,136.314236
2021-06-25,141.485417
2021-06-26,189.9375
2021-06-27,143.269097
2021-06-28,126.892361
2021-06-29,97.775
2021-06-30,92.8954861
2021-07-01,328.840278
2021-07-02,184.826389
2021-07-03,103.910417
2021-07-04,187.475694
2021-07-05,121.833333
2021-07-06,98.5670139
2021-07-07,94.4847222
2021-07-08,85.9493056
2021-07-09,86.0284722
2021-07-10,84.0763889
2021-07-11,82.0309028
2021-07-12,81.25625
2021-07-13,82.1274306
2021-07-14,80.8041667
2021-07-15,115.352431
2021-07-16,135.019792
2021-07-17,93.2444445
2021-07-18,90.4822917
2021-07-19,83.8354167
2021-07-20,80.6065972
2021-07-21,78.3709091
2021-07-22,
2021-07-23,
2021-07-24,99.7725694
2021-07-25,134.773611
2021-07-26,128.708333
2021-07-27,96.5520833
2021-07-28,85.2048611
2021-07-29,81.3125
2021-07-30,79.5319445
2021-07-31,518.045833
2021-08-01,471.947917
2021-08-02,209.559028